STARLINK-32010, 60279

Orbit data source: Space-Track

STARLINK-32010, 60279 is a payload satellite owned by SpaceX/Seattle (US) in LEO that was launched on Sun, 28 Jul 2024 UTC via an FALCON 9 launch vehicle from the Air Force Eastern Test Range (AFETR). Payload-class satellites include a variety of spacecraft equipped with specific instruments for various scientific and technological missions. These include communications satellites like Starlink; space stations such as the ISS; scientific satellites like the Hubble; Earth observation satellites from companies like Planet Labs, Umbra, and HawkEye 360; GPS; miniature CubeSats for education and research; and military/defense satellites.

Loading next visibility...
Identifier
60279, 2024-132B
Orbit
LEO
Last TLE update
19 hours ago
Origin
Manufacturer
SpaceX/Seattle
Mission
Operational spacecraft
Bus & Motor
STARLINK V2M, Unknown motor
Mass
730 kg wet, ~700 kg dry
Launch date (UTC)
2024-07-28 (9 months ago)
Launch vehicle
FALCON 9
Launch site
Air Force Eastern Test Range (AFETR)
Object type
Payload
Rocket body
Debris
Shape & HBR
Unknown
Radar Cross Section
Large (>1 m²)

Expand to show TLE details & history

TLE from 19 hours ago
0 STARLINK-32010
1 60279U 24132B   25128.97677537  .00000076  00000-0  14690-4 0  9992
2 60279  53.1611  28.0671 0001174  90.6059 269.5076 15.30192577 44901
Epoch: 2025-05-08T23:26Z
Definitive object data (Epoch: 2025-05-08T23:26:33.391Z)
Latitude
-0.00007°
Longitude
169.38838°
Altitude
476.144 km
Speed
7.629 km/s
True Right ascension
01h 52m 16s
True Declination
0° 00' 00"
Sunlit
Object was in daylight at TLE epoch
Visualization TLE readout
Latitude
21.64565°
Longitude
-31.57861°
Altitude
475.441 km
Speed
7.631 km/s
Apparent Right ascension
13h 36m 26s
Apparent Declination
-8° 20' 24"
Sunlit
Object is in full shadow
Visualization observer readout
Local Sidereal Time
03:05:55
Azimuth
38.356° NE
Elevation
-52.64°
Doppler factor
1
Orbital elements
Apogee altitude
476.298 km
Perigee altitude
474.689 km
Semi-major axis
6,853.63 km
Eccentricity
0.0001174
Inclination
53.1611°
RAAN
28.0671°
Arg. of periapsis
90.6059°
True anomaly
269.49415°
Mean anomaly
269.5076°
Eccentric anomaly
269.50087°
Mean motion
3.82527 °/min
BSTAR
0.00001469
Orbital period
94.11 mins
Loading maneuver chart data...
Loading SW <> Apogee altitude chart data...
Loading historical data...
Loading historical data...
Loading historical data...
Loading historical data...
Loading historical data...
Loading historical data...
Loading historical data...

STARLINK-32010 Visibility forecast

Observer location: undefined°, undefined°

Span
Click to sort rows by Start time (UTC) header in descending order
Start Az.
Max El. time (UTC)
Max El. Az.
Max El.
End time (UTC)
End Az.
6 mins2025-05-09 20:00:02.149Z231.331° WSW2025-05-09 20:03:02.149Z255.841° W44.31°2025-05-09 20:06:02.149Z48.362° ENE
4 mins2025-05-10 00:58:02.149Z345.784° N2025-05-10 01:00:02.149Z23.375° NE16.549°2025-05-10 01:02:02.149Z59.362° ENE
5 mins2025-05-10 02:36:02.149Z313.906° NW2025-05-10 02:38:02.149Z343.468° N43.61°2025-05-10 02:41:02.149Z125.978° SE
|